CW1569 Weather Reports


Display with metric or nautical units.
time (UTC)temp
F
wind
direction
speed
MPH
gust
MPH
rain 1hr
in
rain 24hr
in
rain mn
in
humidity
%
barometer
mb
20260507003836 50 360 7.0 15.0 0.00 0.00 0.00 45 1011.3
20260507003324 50 360 9.0 17.0 0.00 0.00 0.00 44 1011.3
20260507002833 50 360 9.0 14.0 0.00 0.00 0.00 44 1011.2
20260507002341 50 360 8.0 18.0 0.00 0.00 0.00 45 1011.0
20260507001829 51 360 7.0 19.0 0.00 0.00 0.00 44 1011.0
20260507001339 51 360 6.0 19.0 0.00 0.00 0.00 44 1010.9
20260507000825 51 360 6.0 16.0 0.00 0.00 0.00 44 1010.8
20260507000333 51 360 8.0 16.0 0.00 0.00 0.00 44 1010.8
20260506235823 51 360 5.0 20.0 0.00 0.00 0.00 45 1010.8
20260506235331 51 360 8.0 20.0 0.00 0.00 0.00 44 1010.8
20260506234841 51 360 6.0 15.0 0.00 0.00 0.00 44 1010.6
20260506234410 52 360 9.0 15.0 0.00 0.00 0.00 43 1010.5
20260506233856 52 360 6.0 15.0 0.00 0.00 0.00 44 1010.6
20260506233322 52 360 6.0 15.0 0.00 0.00 0.00 43 1010.6
20260506232831 52 360 5.0 12.0 0.00 0.00 0.00 43 1010.5
20260506232322 52 360 3.0 15.0 0.00 0.00 0.00 43 1010.5
20260506231859 52 360 9.0 15.0 0.00 0.00 0.00 42 1010.6
20260506231329 52 360 5.0 14.0 0.00 0.00 0.00 43 1010.5
20260506230838 52 360 7.0 14.0 0.00 0.00 0.00 42 1010.5
20260506230328 52 360 7.0 18.0 0.00 0.00 0.00 43 1010.4
20260506225838 52 360 8.0 18.0 0.00 0.00 0.00 42 1010.4
20260506225348 52 360 9.0 17.0 0.00 0.00 0.00 41 1010.4
20260506224858 53 360 8.0 13.0 0.00 0.00 0.00 42 1010.3
20260506224327 53 360 6.0 15.0 0.00 0.00 0.00 42 1010.4
20260506223836 53 360 8.0 15.0 0.00 0.00 0.00 42 1010.3
20260506223325 53 360 6.0 11.0 0.00 0.00 0.00 43 1010.2
20260506222834 53 360 3.0 14.0 0.00 0.00 0.00 42 1010.1
20260506222321 53 360 5.0 14.0 0.00 0.00 0.00 42 1010.1
20260506221832 53 260 5.0 18.0 0.00 0.00 0.00 41 1010.2
20260506221324 53 360 7.0 14.0 0.00 0.00 0.00 41 1010.1
20260506220827 53 360 4.0 14.0 0.00 0.00 0.00 42 1010.0
20260506220336 53 360 5.0 14.0 0.00 0.00 0.00 41 1010.0
20260506215824 53 360 6.0 12.0 0.00 0.00 0.00 41 1009.9
20260506215333 54 360 6.0 15.0 0.00 0.00 0.00 41 1009.8
20260506214823 54 360 6.0 15.0 0.00 0.00 0.00 40 1010.0
20260506214334 54 360 9.0 17.0 0.00 0.00 0.00 41 1009.9
20260506213822 53 360 10.0 17.0 0.00 0.00 0.00 40 1009.8
20260506213332 54 360 7.0 15.0 0.00 0.00 0.00 40 1009.9
20260506212822 54 360 6.0 15.0 0.00 0.00 0.00 41 1009.8
20260506212331 55 360 10.0 17.0 0.00 0.00 0.00 41 1009.7
20260506211840 55 360 8.0 17.0 0.00 0.00 0.00 41 1009.7
20260506211351 54 360 7.0 16.0 0.00 0.00 0.00 40 1009.7
20260506210839 54 360 7.0 17.0 0.00 0.00 0.00 40 1009.7
20260506210327 55 360 6.0 17.0 0.00 0.00 0.00 40 1009.7
20260506205835 55 360 7.0 14.0 0.00 0.00 0.00 40 1009.7
20260506205321 54 360 8.0 14.0 0.00 0.00 0.00 39 1009.7
20260506204831 55 360 8.0 16.0 0.00 0.00 0.00 39 1009.7
20260506204342 54 360 8.0 16.0 0.00 0.00 0.00 39 1009.7
20260506203831 55 360 9.0 15.0 0.00 0.00 0.00 38 1009.7
20260506203337 54 360 9.0 15.0 0.00 0.00 0.00 38 1009.7
20260506202823 54 360 7.0 18.0 0.00 0.00 0.00 38 1009.9
20260506202330 54 360 9.0 18.0 0.00 0.00 0.00 39 1009.9
20260506201842 54 231 8.0 18.0 0.00 0.00 0.00 39 1009.9
20260506201354 54 360 8.0 14.0 0.00 0.00 0.00 39 1009.9
20260506200909 55 360 7.0 20.0 0.00 0.00 0.00 38 1009.9
20260506200357 55 360 10.0 20.0 0.00 0.00 0.00 37 1009.9
20260506195827 55 360 9.0 17.0 0.00 0.00 0.00 37 1010.0
20260506195339 55 360 12.0 18.0 0.00 0.00 0.00 37 1010.1
20260506194827 55 360 11.0 17.0 0.00 0.00 0.00 36 1010.0
20260506194338 55 360 11.0 17.0 0.00 0.00 0.00 38 1010.1
20260506193845 55 360 5.0 13.0 0.00 0.00 0.00 38 1010.1
20260506193335 55 196 6.0 16.0 0.00 0.00 0.00 39 1010.1
20260506192823 55 360 9.0 21.0 0.00 0.00 0.00 37 1010.1
20260506192334 55 360 12.0 21.0 0.00 0.00 0.00 38 1010.2
20260506191825 55 360 9.0 14.0 0.00 0.00 0.00 38 1010.3
20260506191403 54 360 8.0 13.0 0.00 0.00 0.00 38 1010.3
20260506190846 54 360 8.0 12.0 0.00 0.00 0.00 36 1010.3
20260506190336 54 235 6.0 13.0 0.00 0.00 0.00 36 1010.3
20260506185826 55 360 6.0 13.0 0.00 0.00 0.00 36 1010.3
20260506185359 54 360 5.0 16.0 0.00 0.00 0.00 39 1010.3
20260506184828 54 360 9.0 16.0 0.00 0.00 0.00 37 1010.3
20260506184339 55 360 7.0 19.0 0.00 0.00 0.00 38 1010.2
20260506183828 55 360 13.0 19.0 0.00 0.00 0.00 38 1010.3
20260506183336 54 360 9.0 17.0 0.00 0.00 0.00 39 1010.2
20260506182827 54 360 5.0 16.0 0.00 0.00 0.00 37 1010.2
20260506182336 54 360 8.0 16.0 0.00 0.00 0.00 38 1010.3
20260506181827 54 360 9.0 17.0 0.00 0.00 0.00 37 1010.2
20260506181339 54 360 9.0 20.0 0.00 0.00 0.00 36 1010.3
20260506180823 54 360 11.0 20.0 0.00 0.00 0.00 37 1010.3
20260506180332 54 360 14.0 19.0 0.00 0.00 0.00 38 1010.3
20260506175841 53 360 5.0 13.0 0.00 0.00 0.00 40 1010.3
20260506175331 53 360 8.0 15.0 0.00 0.00 0.00 37 1010.4
20260506174821 53 360 8.0 17.0 0.00 0.00 0.00 38 1010.4
20260506174334 53 190 9.0 19.0 0.00 0.00 0.00 37 1010.4
20260506173839 53 360 7.0 19.0 0.00 0.00 0.00 38 1010.4
20260506173329 54 360 10.0 18.0 0.00 0.00 0.00 37 1010.4
20260506172839 54 360 7.0 15.0 0.00 0.00 0.00 39 1010.4
20260506172330 53 360 10.0 18.0 0.00 0.00 0.00 37 1010.4
20260506171833 53 360 6.0 18.0 0.00 0.00 0.00 39 1010.6
20260506171325 53 360 7.0 13.0 0.00 0.00 0.00 39 1010.6
20260506170832 53 248 6.0 15.0 0.00 0.00 0.00 38 1010.7
20260506170343 53 360 8.0 17.0 0.00 0.00 0.00 37 1010.8
20260506165832 53 360 10.0 18.0 0.00 0.00 0.00 38 1010.8
20260506165341 53 360 6.0 18.0 0.00 0.00 0.00 37 1010.7
20260506164827 53 260 10.0 18.0 0.00 0.00 0.00 37 1010.7
20260506164403 53 360 8.0 18.0 0.00 0.00 0.00 36 1010.6
20260506163846 53 360 9.0 17.0 0.00 0.00 0.00 36 1010.7
20260506163352 53 360 5.0 20.0 0.00 0.00 0.00 38 1010.8
20260506162840 53 232 8.0 20.0 0.00 0.00 0.00 39 1010.6
20260506162330 53 360 10.0 18.0 0.00 0.00 0.00 38 1010.5
20260506161841 53 360 12.0 18.0 0.00 0.00 0.00 38 1010.8
20260506161351 53 360 4.0 16.0 0.00 0.00 0.00 39 1010.7
20260506160837 52 360 7.0 16.0 0.00 0.00 0.00 39 1010.6
20260506160328 52 360 8.0 18.0 0.00 0.00 0.00 40 1010.7
20260506155835 51 360 9.0 18.0 0.00 0.00 0.00 41 1010.7
20260506155324 51 360 9.0 14.0 0.00 0.00 0.00 42 1010.7
20260506154829 52 360 11.0 16.0 0.00 0.00 0.00 42 1010.6
20260506154340 52 360 8.0 21.0 0.00 0.00 0.00 42 1010.7
20260506153825 51 360 11.0 21.0 0.00 0.00 0.00 42 1010.6
20260506153332 51 360 9.0 18.0 0.00 0.00 0.00 43 1010.7
20260506152847 51 360 6.0 15.0 0.00 0.00 0.00 43 1010.9
20260506152351 51 360 8.0 14.0 0.00 0.00 0.00 46 1010.8
20260506151840 51 360 7.0 16.0 0.00 0.00 0.00 44 1010.7
20260506151332 51 360 10.0 17.0 0.00 0.00 0.00 46 1010.9
20260506150839 51 360 10.0 17.0 0.00 0.00 0.00 46 1010.8
20260506150329 51 360 8.0 14.0 0.00 0.00 0.00 46 1010.9
20260506145837 51 360 4.0 13.0 0.00 0.00 0.00 47 1010.8
20260506145326 51 360 7.0 13.0 0.00 0.00 0.00 46 1010.9
20260506144903 51 360 9.0 14.0 0.00 0.00 0.00 46 1010.9
20260506144352 51 360 5.0 14.0 0.00 0.00 0.00 48 1010.9
20260506143838 51 360 8.0 14.0 0.00 0.00 0.00 46 1010.9
20260506143342 51 360 7.0 16.0 0.00 0.00 0.00 45 1011.0
20260506142851 50 175 11.0 16.0 0.00 0.00 0.00 47 1011.0
20260506142337 50 360 5.0 15.0 0.00 0.00 0.00 49 1010.9
20260506141827 50 360 11.0 15.0 0.00 0.00 0.00 47 1010.9
20260506141337 50 360 8.0 14.0 0.00 0.00 0.00 47 1010.8
20260506140826 50 360 5.0 12.0 0.00 0.00 0.00 47 1010.8
20260506140333 50 360 8.0 12.0 0.00 0.00 0.00 46 1010.8
20260506135841 50 360 4.0 10.0 0.00 0.00 0.00 46 1010.8
20260506135330 50 360 5.0 9.0 0.00 0.00 0.00 48 1010.7
20260506134838 49 360 4.0 8.0 0.00 0.00 0.00 46 1010.6
20260506134348 49 360 4.0 8.0 0.00 0.00 0.00 52 1010.5
20260506133834 49 360 5.0 8.0 0.00 0.00 0.00 50 1010.5
20260506133324 49 360 3.0 8.0 0.00 0.00 0.00 53 1010.3
20260506132834 48 360 4.0 8.0 0.00 0.00 0.00 53 1010.4
20260506132323 48 360 4.0 6.0 0.00 0.00 0.00 56 1010.4
20260506131830 48 360 4.0 6.0 0.00 0.00 0.00 55 1010.4
20260506131342 48 360 2.0 4.0 0.00 0.00 0.00 57 1010.3
20260506130828 47 360 1.0 6.0 0.00 0.00 0.00 61 1010.3
20260506130337 47 360 3.0 6.0 0.00 0.00 0.00 62 1010.3
20260506125825 46 360 1.0 5.0 0.00 0.00 0.00 65 1010.4
20260506125330 46 360 2.0 5.0 0.00 0.00 0.00 66 1010.3
20260506124839 46 360 0.0 3.0 0.00 0.00 0.00 69 1010.2
20260506124329 45 360 2.0 4.0 0.00 0.00 0.00 69 1010.2
20260506123836 45 360 2.0 4.0 0.00 0.00 0.00 70 1010.3
20260506123347 45 360 0.0 0.0 0.00 0.00 0.00 70 1010.1
20260506122855 45 360 0.0 0.0 0.00 0.00 0.00 71 1010.1
20260506122322 44 360 0.0 0.0 0.00 0.00 0.00 71 1009.9
20260506121831 44 360 0.0 0.0 0.00 0.00 0.00 71 1009.9
20260506121323 43 360 0.0 0.0 0.00 0.00 0.00 74 1009.8
20260506120858 43 360 0.0 0.0 0.00 0.00 0.00 73 1009.7
20260506120326 42 360 0.0 0.0 0.00 0.00 0.00 75 1009.7
20260506115834 42 360 0.0 0.0 0.00 0.00 0.00 75 1009.7
20260506115323 42 360 0.0 0.0 0.00 0.00 0.00 73 1009.7
20260506114833 42 360 0.0 0.0 0.00 0.00 0.00 73 1009.7
20260506114324 41 360 0.0 0.0 0.00 0.00 0.00 74 1009.8
20260506113859 41 360 0.0 0.0 0.00 0.00 0.00 74 1009.8
20260506113328 41 360 0.0 0.0 0.00 0.00 0.00 75 1009.7
20260506112837 41 360 0.0 0.0 0.00 0.00 0.00 76 1009.7
20260506112409 41 360 0.0 0.0 0.00 0.00 0.00 77 1009.8
20260506111856 41 360 0.0 0.0 0.00 0.00 0.00 76 1009.7
20260506111327 40 360 0.0 2.0 0.00 0.00 0.00 76 1009.7
20260506110834 40 360 0.0 2.0 0.00 0.00 0.00 75 1009.5
20260506110324 40 360 1.0 3.0 0.00 0.00 0.00 76 1009.5
20260506105834 40 360 1.0 3.0 0.00 0.00 0.00 75 1009.4
20260506105322 40 360 1.0 3.0 0.00 0.00 0.00 74 1009.3
20260506104832 40 360 0.0 3.0 0.00 0.00 0.00 74 1009.1
20260506104342 40 360 2.0 3.0 0.00 0.00 0.00 74 1009.0
20260506103848 41 360 2.0 3.0 0.00 0.00 0.00 73 1008.8
20260506103335 41 360 0.0 0.0 0.00 0.00 0.00 72 1008.7
20260506102825 41 360 0.0 0.0 0.00 0.00 0.00 72 1008.7
20260506102334 41 360 0.0 1.0 0.00 0.00 0.00 72 1008.7
20260506101845 41 360 0.0 1.0 0.00 0.00 0.00 72 1008.7
20260506101334 41 360 0.0 0.0 0.00 0.00 0.00 71 1008.6
20260506100823 41 360 0.0 0.0 0.00 0.00 0.00 71 1008.6
20260506100355 41 360 0.0 0.0 0.00 0.00 0.00 69 1008.7
20260506095820 41 360 0.0 0.0 0.00 0.00 0.00 69 1008.7
20260506095332 41 360 0.0 0.0 0.00 0.00 0.00 70 1008.7
20260506094822 42 360 0.0 0.0 0.00 0.00 0.00 70 1008.6
20260506094400 42 360 0.0 0.0 0.00 0.00 0.00 70 1008.6
20260506093847 42 360 0.0 0.0 0.00 0.00 0.00 69 1008.7
20260506093335 42 360 0.0 0.0 0.00 0.00 0.00 68 1008.8
20260506092844 42 360 0.0 0.0 0.00 0.00 0.00 67 1008.8
20260506092333 42 360 0.0 0.0 0.00 0.00 0.00 68 1008.8
20260506091823 42 360 0.0 0.0 0.00 0.00 0.00 68 1008.9
20260506091334 42 360 0.0 0.0 0.00 0.00 0.00 68 1008.8
20260506090823 42 360 0.0 0.0 0.00 0.00 0.00 68 1008.8
20260506090332 42 360 0.0 0.0 0.00 0.00 0.00 67 1008.9
20260506085822 42 360 0.0 0.0 0.00 0.00 0.00 67 1009.0
20260506085329 42 360 0.0 0.0 0.00 0.00 0.00 66 1009.0
20260506084837 42 360 0.0 0.0 0.00 0.00 0.00 66 1008.7
20260506084329 42 360 0.0 0.0 0.00 0.00 0.00 65 1008.8
20260506083836 42 360 0.0 0.0 0.00 0.00 0.00 65 1008.8
20260506083325 42 360 0.0 0.0 0.00 0.00 0.00 65 1008.8
20260506082829 42 360 0.0 0.0 0.00 0.00 0.00 65 1008.8
20260506082338 42 360 0.0 0.0 0.00 0.00 0.00 65 1008.7
20260506081828 43 360 0.0 0.0 0.00 0.00 0.00 65 1008.5
20260506081337 43 360 0.0 0.0 0.00 0.00 0.00 66 1008.6
20260506080846 43 360 0.0 0.0 0.00 0.00 0.00 66 1008.5
20260506080335 43 360 0.0 0.0 0.00 0.00 0.00 66 1008.4
20260506073326 44 360 0.0 0.0 0.00 0.00 0.00 61 1008.4
20260506072833 44 360 0.0 0.0 0.00 0.00 0.00 61 1008.3
20260506072323 44 360 0.0 0.0 0.00 0.00 0.00 60 1008.3
20260506071832 44 360 0.0 0.0 0.00 0.00 0.00 60 1008.2
20260506071324 44 360 0.0 0.0 0.00 0.00 0.00 60 1008.3
20260506070831 45 360 0.0 0.0 0.00 0.00 0.00 59 1008.3
20260506070339 45 360 0.0 0.0 0.00 0.00 0.00 59 1008.3
20260506062329 46 360 1.0 4.0 0.00 0.00 0.00 56 1008.5
20260506061838 46 360 1.0 4.0 0.00 0.00 0.00 55 1008.5
20260506061329 46 360 2.0 5.0 0.00 0.00 0.00 55 1008.4
20260506060837 46 360 3.0 5.0 0.00 0.00 0.00 54 1008.3
20260506060327 46 360 2.0 6.0 0.00 0.00 0.00 54 1008.3
20260506051334 48 360 6.0 9.0 0.00 0.00 0.00 53 1008.2
20260506050822 48 360 6.0 9.0 0.00 0.00 0.00 53 1008.2
20260506050332 48 360 5.0 9.0 0.00 0.00 0.00 53 1008.0
20260506044836 49 360 3.0 7.0 0.00 0.00 0.00 50 1008.1
20260506044326 49 360 4.0 9.0 0.00 0.00 0.00 49 1008.2
20260506043834 49 360 5.0 9.0 0.00 0.00 0.00 48 1008.1
20260506043324 49 360 5.0 9.0 0.00 0.00 0.00 48 1008.2
20260506042834 49 360 4.0 8.0 0.00 0.00 0.00 48 1008.1
20260506042322 49 39 2.0 7.0 0.00 0.00 0.00 48 1008.0
20260506041831 49 360 2.0 5.0 0.00 0.00 0.00 48 1007.9
20260506041324 49 360 2.0 5.0 0.00 0.00 0.00 48 1007.9
20260506040832 50 360 3.0 5.0 0.00 0.00 0.00 48 1007.8
20260506040322 50 360 2.0 5.0 0.00 0.00 0.00 48 1007.8
20260506035832 50 360 3.0 4.0 0.00 0.00 0.00 48 1007.7
20260506035340 50 360 2.0 3.0 0.00 0.00 0.00 47 1007.9
20260506034827 50 360 2.0 5.0 0.00 0.00 0.00 46 1007.8
20260506034337 50 360 2.0 7.0 0.00 0.00 0.00 46 1007.4
20260506033825 50 360 2.0 7.0 0.00 0.00 0.00 45 1007.3
20260506033351 51 360 2.0 5.0 0.00 0.00 0.00 45 1007.1
20260506032823 51 360 3.0 5.0 0.00 0.00 0.00 45 1007.2
20260506032332 51 360 3.0 7.0 0.00 0.00 0.00 45 1007.1
20260506031840 51 360 4.0 8.0 0.00 0.00 0.00 44 1007.2
20260506031331 51 32 4.0 8.0 0.00 0.00 0.00 43 1007.3
20260506030839 51 360 3.0 7.0 0.00 0.00 0.00 43 1007.2
20260506030330 52 360 4.0 11.0 0.00 0.00 0.00 43 1007.3
20260506025840 52 360 4.0 11.0 0.00 0.00 0.00 43 1007.4
20260506025332 52 360 5.0 9.0 0.00 0.00 0.00 43 1007.4
20260506024822 52 360 4.0 9.0 0.00 0.00 0.00 42 1007.3
20260506024330 52 360 5.0 11.0 0.00 0.00 0.00 43 1007.0
20260506023836 52 360 5.0 12.0 0.00 0.00 0.00 43 1007.0
20260506023327 52 360 8.0 13.0 0.00 0.00 0.00 42 1007.0
20260506022837 52 360 6.0 13.0 0.00 0.00 0.00 43 1006.9
20260506022328 52 360 4.0 8.0 0.00 0.00 0.00 45 1006.8
20260506021838 52 360 3.0 5.0 0.00 0.00 0.00 46 1006.9
20260506021331 52 360 1.0 6.0 0.00 0.00 0.00 47 1006.8
20260506020840 52 360 1.0 6.0 0.00 0.00 0.00 47 1006.7
20260506020329 52 360 0.0 3.0 0.00 0.00 0.00 47 1006.6
20260506015839 52 360 1.0 3.0 0.00 0.00 0.00 47 1006.4
20260506015349 52 360 1.0 3.0 0.00 0.00 0.00 46 1006.4
20260506014838 52 360 1.0 3.0 0.00 0.00 0.00 45 1006.1
20260506014330 52 360 2.0 3.0 0.00 0.00 0.00 45 1006.1
20260506013834 52 360 0.0 3.0 0.00 0.00 0.00 45 1006.1
20260506013325 52 360 0.0 4.0 0.00 0.00 0.00 44 1006.0
20260506012834 53 360 1.0 3.0 0.00 0.00 0.00 44 1006.0
20260506012324 53 360 2.0 3.0 0.00 0.00 0.00 43 1005.9
20260506011834 53 360 2.0 3.0 0.00 0.00 0.00 43 1005.9
20260506011325 53 360 1.0 3.0 0.00 0.00 0.00 42 1005.6
20260506010833 53 360 2.0 4.0 0.00 0.00 0.00 42 1005.4
20260506010323 53 360 3.0 4.0 0.00 0.00 0.00 42 1005.4
20260506005832 53 360 1.0 4.0 0.00 0.00 0.00 41 1005.5
20260506005342 54 360 1.0 5.0 0.00 0.00 0.00 41 1005.4
20260506004832 54 360 2.0 7.0 0.00 0.00 0.00 40 1005.4
20260506004345 54 360 4.0 7.0 0.00 0.00 0.00 40 1005.4